Wind_Speed
36 36 35 35 35 34 33 31 30 29 29 30 30 29 29 28 28 29 28 27 28 29 30 32 34 33 33 30 25 24 25 25 24 24 24 25 25 26 26 27 27 27 27 27 27 27 28 28 29 29 28 26 25 26 28 28 28 30 28 22 19 19 17 14 13 12 12 10 3 3 7 9 10 11 12 13 14 18 16 13 14 13 13 15 12 10
35 34 34 35 34 33 33 32 31 30 30 30 30 29 29 29 29 29 29 29 29 29 30 33 35 34 33 32 28 26 26 27 27 25 25 25 25 26 27 27 28 28 27 27 27 28 28 28 29 29 29 28 26 26 29 30 30 30 28 25 23 22 20 18 17 16 17 15 9 6 9 13 15 16 15 13 13 14 14 12 12 12 13 14 12 11
34 34 34 34 32 32 32 33 33 32 31 31 30 30 29 29 29 29 29 30 30 30 31 32 36 36 33 32 30 27 27 27 28 28 26 25 25 26 26 27 28 29 28 27 27 28 28 29 29 29 29 29 28 27 29 30 31 30 28 28 27 25 21 19 18 18 19 19 16 15 17 19 19 17 16 14 12 12 13 13 11 12 13 14 13 12
33 34 33 32 31 32 33 34 34 33 32 31 31 30 29 29 29 30 30 31 31 31 31 31 35 37 33 31 30 28 27 27 28 28 27 26 25 25 26 26 27 28 28 28 28 28 29 29 29 29 29 30 30 29 29 31 34 32 30 29 28 26 22 18 18 19 21 22 20 20 21 20 17 16 15 14 12 12 13 12 10 10 13 16 15 14
33 33 32 31 31 33 33 34 34 34 33 32 31 30 29 28 29 30 31 32 32 31 30 30 33 36 33 30 28 27 27 28 28 27 27 27 26 26 26 26 26 27 28 28 29 29 29 30 30 30 30 30 31 31 31 33 35 36 34 31 29 27 25 20 18 18 20 22 23 23 22 18 16 16 16 15 13 12 12 13 13 12 14 16 16 15
32 31 31 31 32 33 33 34 34 34 34 33 32 30 29 29 30 31 31 31 32 31 29 28 31 35 33 29 27 25 25 27 27 26 26 27 28 28 27 26 26 27 28 28 29 29 29 31 31 32 32 32 32 33 33 34 36 38 37 34 32 30 28 24 21 20 20 22 25 25 22 18 17 18 17 16 15 14 13 14 16 16 16 16 16 16
31 31 31 31 32 33 34 34 34 33 33 32 32 31 30 29 30 32 32 31 30 30 28 26 29 33 33 30 27 24 23 25 26 26 26 27 28 29 29 28 26 26 27 28 28 28 29 30 31 32 34 34 34 35 35 36 37 39 40 38 37 36 34 29 26 23 21 24 27 25 22 20 19 19 20 19 17 17 16 16 16 16 15 14 14 14
30 31 31 31 32 33 34 35 34 33 32 31 32 33 32 30 31 32 32 30 29 27 26 25 27 31 32 30 28 24 21 23 26 26 26 26 27 28 29 28 26 25 26 27 27 28 28 29 31 32 34 35 36 37 38 38 38 39 40 41 41 41 39 35 31 27 23 24 26 27 26 24 21 19 19 20 20 21 20 20 19 17 16 15 14 15
30 31 31 31 32 33 35 35 35 33 31 30 32 33 33 32 31 30 31 30 27 25 23 23 24 27 31 31 28 25 21 22 25 26 26 25 24 25 27 26 26 25 24 25 26 26 26 26 28 31 33 35 36 38 40 41 41 40 41 41 41 42 41 38 36 32 27 26 26 28 28 25 23 21 21 21 23 23 23 25 23 20 19 18 20 22
30 31 31 31 32 33 34 35 35 34 31 30 30 31 31 30 29 28 28 28 26 24 21 21 22 25 28 30 29 26 23 21 23 24 25 23 22 22 24 24 24 23 22 22 23 24 24 24 25 28 31 33 34 36 38 40 41 41 41 41 41 41 41 40 38 35 31 29 28 28 28 26 24 24 24 24 26 25 25 26 25 22 21 21 23 23
30 31 32 32 32 32 33 33 34 34 34 32 31 31 29 29 28 26 25 25 25 24 22 21 22 23 25 27 28 27 24 22 21 22 22 22 21 20 22 22 22 21 19 20 20 20 21 21 22 25 28 31 32 34 36 37 39 40 40 40 39 39 39 39 38 36 34 32 31 30 30 30 29 26 25 25 28 28 26 25 25 24 23 23 23 23
30 31 32 31 31 31 32 32 32 34 34 33 32 31 30 28 26 24 24 23 23 22 22 21 22 22 22 24 26 26 25 23 20 19 20 21 20 19 19 21 21 20 18 18 18 18 18 19 20 22 26 28 30 32 33 34 35 36 37 37 36 36 36 37 37 36 35 34 33 32 32 33 34 32 28 25 26 28 27 25 25 25 25 25 25 26
30 31 31 30 30 31 32 32 34 34 33 32 30 29 28 27 25 23 22 21 20 20 20 20 21 21 21 22 24 24 24 24 22 19 18 19 20 19 19 19 21 20 19 18 18 18 18 18 19 21 24 27 28 30 31 32 33 33 34 34 34 33 33 34 34 34 34 34 33 33 33 34 35 35 33 29 27 27 26 26 26 25 26 27 28 29
30 30 30 30 30 31 32 34 35 35 32 28 25 24 25 24 23 20 18 17 16 16 17 18 19 19 19 20 21 21 21 23 23 22 20 19 19 20 19 19 19 20 20 20 19 20 19 19 19 21 24 26 27 27 27 29 31 31 32 33 32 31 31 32 31 31 32 33 33 33 34 34 33 34 35 34 31 29 28 27 27 28 28 29 31 32
30 30 30 29 30 32 33 35 36 34 29 23 19 20 21 20 18 14 13 15 15 15 15 16 16 16 16 17 17 17 18 19 21 21 20 19 19 18 19 18 18 18 19 21 21 22 21 21 21 23 24 25 26 26 26 26 29 30 30 31 31 31 31 30 29 28 30 32 33 34 35 33 31 32 33 35 35 34 32 30 30 31 32 32 33 34
30 29 29 29 30 32 33 35 35 29 22 17 16 17 16 14 12 10 11 13 14 15 15 14 14 13 12 13 14 15 16 17 19 19 19 19 18 17 17 17 17 16 16 18 20 22 24 24 24 24 25 26 26 26 25 26 28 29 30 31 32 31 31 30 28 29 30 31 33 35 35 34 32 33 35 36 36 36 35 34 33 33 33 33 34 34
29 27 27 28 29 31 32 32 29 19 11 11 13 12 10 9 9 9 9 11 12 14 16 15 14 12 11 11 12 14 15 16 17 17 17 16 16 15 15 15 15 15 14 13 14 18 22 26 27 27 27 27 27 26 26 26 28 29 30 31 33 32 32 31 31 33 31 29 30 32 34 35 33 33 34 34 34 34 34 34 34 33 32 32 32 33
28 26 26 26 26 27 30 28 21 11 6 7 8 7 6 6 7 8 9 11 12 13 15 15 14 13 12 11 11 12 13 13 13 14 14 15 15 15 15 15 15 15 15 14 13 13 16 21 26 29 30 30 30 29 28 28 28 30 30 32 34 34 34 33 34 37 36 29 27 29 32 35 35 33 32 31 30 29 28 28 29 29 28 29 31 31
27 27 26 26 25 26 27 23 14 6 4 5 5 4 4 5 6 7 9 10 10 10 12 14 14 14 13 12 11 12 12 12 11 12 13 14 15 15 15 15 16 16 16 17 16 16 15 16 19 25 30 32 33 32 31 31 30 31 31 32 35 36 36 35 36 40 41 35 29 28 31 34 35 34 33 32 30 27 25 25 24 23 24 26 28 28
26 27 26 25 26 27 25 19 9 3 3 5 5 3 3 4 5 6 8 9 9 9 10 12 14 14 14 13 12 12 12 12 11 11 13 14 15 15 15 15 15 16 17 18 19 19 19 19 19 20 24 28 31 34 34 34 34 33 33 33 35 37 38 39 39 40 42 41 35 31 31 32 34 34 35 34 34 31 29 28 25 23 23 25 26 26
25 25 24 23 24 25 22 16 8 4 5 6 6 4 3 4 5 6 7 9 9 10 10 11 13 14 14 13 12 11 11 12 12 13 15 16 16 16 16 16 17 17 17 18 19 20 20 21 22 23 24 25 27 30 33 36 37 37 36 36 36 38 39 41 41 40 41 42 41 38 35 34 34 35 35 36 37 37 34 31 29 28 26 26 27 28
25 23 21 20 21 22 19 14 8 6 7 8 7 6 5 5 6 7 9 10 11 12 12 12 13 14 13 12 11 11 12 13 15 16 17 18 18 19 20 20 20 20 20 20 19 19 20 21 22 24 26 27 28 29 30 33 37 38 39 39 40 40 41 43 43 43 42 42 42 42 41 39 38 37 36 36 37 39 38 35 33 32 29 29 29 28
24 20 18 18 20 19 15 11 8 8 9 8 7 6 5 6 7 9 10 11 12 13 14 13 13 14 14 12 11 12 14 16 18 19 20 20 21 22 23 23 23 23 24 24 23 22 22 22 23 24 26 27 29 30 30 31 33 36 39 41 42 44 44 45 46 46 45 44 44 45 45 45 43 41 39 37 36 37 38 37 36 34 33 33 32 30
22 17 15 17 18 15 10 9 9 8 8 7 7 6 6 7 9 10 11 12 12 13 15 14 13 13 14 13 13 15 17 18 18 19 20 21 23 24 25 25 25 26 27 27 27 26 26 26 26 27 27 28 29 30 31 31 32 34 37 39 42 45 47 48 49 50 50 49 48 47 48 48 47 45 43 41 38 37 38 39 39 37 37 37 36 34
22 17 15 15 15 11 9 10 9 5 5 7 8 8 9 10 11 12 12 13 13 14 15 15 15 14 15 15 15 17 19 20 20 20 21 22 23 24 25 26 27 28 29 29 29 29 29 29 29 30 31 32 32 32 32 32 33 34 35 38 40 43 46 49 51 53 54 55 54 53 52 52 52 51 49 48 46 43 41 41 41 41 41 40 39 38
21 16 14 14 12 10 10 9 7 4 6 9 10 10 11 12 13 13 14 15 15 15 15 16 16 16 16 16 16 17 19 21 21 22 23 23 24 26 27 28 29 30 30 30 31 31 31 31 31 32 33 34 36 36 36 36 36 36 37 38 39 42 44 47 50 52 54 56 58 58 57 56 56 56 54 53 53 51 48 46 44 44 44 44 43 42
19 14 13 13 11 10 10 9 9 9 10 12 13 13 14 14 15 15 16 17 16 16 16 17 17 18 18 18 19 19 20 21 23 24 26 27 28 29 30 30 31 32 32 32 32 32 33 34 34 34 35 36 38 39 40 40 40 40 40 40 41 42 43 46 48 50 52 54 56 59 60 60 59 60 60 59 58 58 57 54 51 48 46 46 45 44
16 13 14 13 11 10 9 10 12 13 13 14 14 14 15 16 16 17 18 17 17 18 19 20 20 21 22 23 24 24 24 25 26 28 30 31 32 33 34 34 36 37 36 35 34 34 35 36 35 36 37 38 40 41 42 43 44 44 44 44 45 45 46 47 48 49 51 52 55 57 59 60 61 61 62 63 63 62 62 61 59 56 54 51 49 47
15 15 13 12 11 10 11 12 13 13 14 15 16 16 17 17 17 17 18 19 19 20 21 22 23 24 25 27 28 28 29 29 30 31 32 34 36 36 35 35 37 38 38 36 35 36 37 37 37 37 37 39 41 42 44 45 46 47 48 48 49 50 50 51 51 51 52 53 55 57 59 61 62 62 62 63 65 66 66 66 64 63 62 60 58 56
16 15 13 12 12 12 12 13 14 15 17 18 18 19 19 19 18 18 19 20 21 22 23 24 26 27 28 29 30 31 31 32 32 32 33 36 37 36 34 35 37 39 40 39 39 39 40 39 39 39 39 41 43 45 46 48 49 50 51 52 53 54 54 55 56 55 55 55 57 58 60 61 62 64 64 63 63 66 68 70 70 68 66 65 65 65
16 15 14 13 13 14 14 15 16 18 19 19 21 21 21 20 21 21 22 23 23 24 25 27 28 30 31 32 33 33 33 34 34 34 35 37 36 35 36 38 39 41 43 44 44 45 47 47 47 47 46 46 47 48 49 50 51 52 54 55 56 57 58 58 58 59 59 59 60 60 62 62 63 64 65 65 65 64 66 69 72 73 72 71 70 70
17 16 15 14 14 15 16 16 18 19 20 21 23 24 23 23 24 25 25 26 27 28 29 30 31 32 33 34 35 36 36 37 37 36 36 35 34 36 37 38 40 43 45 47 48 52 56 56 55 54 52 52 52 52 52 52 52 54 55 56 58 59 60 60 60 60 60 60 61 62 64 65 66 66 66 67 67 67 66 67 69 72 74 75 75 75
18 18 17 16 15 16 17 18 19 21 22 23 25 26 26 27 27 28 29 30 31 32 33 34 35 35 36 36 37 38 40 41 41 40 37 36 36 39 42 44 47 49 50 52 54 57 57 55 53 53 55 58 60 60 58 57 56 56 57 57 58 59 60 61 61 61 61 60 61 62 63 65 67 68 68 68 69 69 69 68 68 69 71 74 76 78
19 19 18 16 15 16 17 18 20 22 24 25 27 28 29 30 31 32 33 34 35 36 37 37 37 38 38 38 40 42 44 45 45 43 41 40 41 44 46 50 52 53 53 54 55 54 53 54 56 59 62 65 66 65 64 62 60 59 59 58 59 59 59 60 61 61 62 61 61 61 62 63 65 66 68 69 70 70 70 70 70 70 70 71 74 76
19 18 18 17 16 17 19 20 22 24 25 27 28 30 31 33 34 35 36 37 38 39 39 40 40 40 41 42 43 42 39 37 38 40 41 41 44 46 48 50 52 53 53 53 54 56 58 60 63 65 66 67 68 68 67 66 64 62 61 60 59 59 59 59 60 60 61 60 60 61 61 63 64 65 66 68 69 71 72 72 72 72 72 72 73 74
18 18 18 19 20 21 21 22 23 25 27 28 30 32 33 34 36 37 39 40 41 41 42 42 43 43 43 42 39 35 31 32 38 43 45 46 48 50 52 54 56 56 56 58 60 63 64 65 65 66 66 67 67 67 67 66 66 65 64 63 62 61 61 61 61 61 61 60 60 60 60 61 62 64 64 65 67 69 71 72 73 73 74 74 74 74
19 19 20 21 22 23 24 25 26 27 29 31 32 34 35 36 38 39 41 42 44 44 44 45 45 46 44 41 38 37 39 43 47 51 53 53 54 56 57 59 60 61 62 64 65 66 65 65 65 65 65 65 65 65 65 65 65 65 65 64 64 63 62 62 62 62 62 62 62 61 61 61 62 63 64 64 66 67 69 71 72 73 73 74 75 75
20 21 22 23 24 26 26 28 29 30 32 34 35 36 38 39 40 42 43 45 46 47 47 47 48 49 48 47 47 48 49 51 53 55 58 58 59 60 61 62 63 64 65 65 66 66 66 66 65 65 64 64 64 64 64 64 64 64 64 63 63 63 63 62 62 62 63 63 63 63 63 63 63 63 64 64 65 66 68 69 70 71 72 72 73 74
22 23 24 25 27 28 29 30 31 32 34 36 38 39 40 41 43 44 45 47 48 49 49 50 51 51 51 52 52 54 55 56 57 58 60 61 61 62 63 64 65 66 66 66 66 66 66 65 65 65 65 64 64 64 63 63 63 62 62 62 62 62 62 62 62 62 63 63 63 63 63 63 64 64 65 65 65 66 66 67 68 69 70 70 71 72
24 26 27 27 29 30 31 32 33 34 36 38 40 41 42 44 45 46 47 48 50 50 51 52 53 53 54 55 56 58 59 60 61 61 62 63 64 64 65 66 66 66 66 66 66 66 66 66 66 65 64 64 63 63 62 62 61 61 61 61 61 61 62 62 63 63 64 65 65 65 65 64 64 65 65 65 66 66 66 66 67 67 68 69 69 70
26 27 29 29 30 32 33 34 35 36 38 39 41 43 44 46 47 48 48 49 50 51 52 53 54 56 57 58 59 61 61 62 63 64 64 65 66 67 67 67 67 67 67 67 67 67 66 66 65 64 64 63 62 62 61 61 61 61 61 61 61 62 63 64 65 66 67 68 68 68 68 68 67 66 66 66 66 67 67 67 67 67 67 68 68 68
27 28 29 30 32 33 35 36 38 39 40 41 43 44 46 47 47 47 48 50 51 52 54 55 57 58 59 60 61 62 63 64 65 65 66 66 67 67 67 67 67 67 67 67 67 66 65 64 64 63 62 62 61 61 61 62 62 62 62 62 63 64 65 66 67 68 69 70 71 71 72 72 71 70 69 68 68 68 68 68 68 67 68 68 68 68
28 29 30 32 33 35 37 39 40 41 42 44 45 45 46 47 48 48 50 52 53 55 56 58 59 60 61 62 63 64 65 66 66 66 67 67 67 67 67 67 67 67 66 66 65 64 64 63 63 62 63 63 63 63 63 64 65 65 65 65 66 66 67 68 69 70 71 72 73 73 74 75 75 74 73 72 71 70 70 69 69 69 68 68 68 68
30 31 32 34 36 38 40 42 43 45 45 46 47 47 48 49 50 52 53 55 56 58 59 60 61 62 63 63 64 65 65 66 66 66 66 67 67 67 66 66 65 65 64 64 64 64 64 64 64 65 65 65 65 66 66 66 67 66 66 66 67 68 69 70 71 72 73 74 74 75 76 77 78 78 78 76 75 74 73 72 71 71 70 69 69 69
32 34 35 37 39 41 42 43 45 46 47 48 49 50 51 52 54 55 57 58 59 60 61 62 63 64 64 65 65 65 65 66 66 67 67 67 66 66 65 64 64 63 63 64 65 65 66 67 67 68 68 68 68 67 67 67 66 66 65 66 67 68 70 71 73 74 75 75 76 76 77 78 79 80 81 80 79 77 76 74 73 73 72 71 70 70
34 36 37 39 40 41 42 44 45 46 48 49 51 53 54 56 57 59 60 61 62 62 63 64 65 65 65 66 66 67 67 68 68 67 67 66 66 65 64 64 64 65 66 67 68 68 69 69 69 69 69 69 68 68 67 67 67 66 67 68 69 70 71 72 74 74 75 75 75 75 76 77 78 79 80 81 81 80 79 77 76 75 74 73 72 71
36 38 39 39 40 42 43 44 46 48 49 51 53 55 57 58 60 61 62 63 65 65 66 66 67 67 68 68 69 69 68 68 67 67 66 66 65 65 65 66 67 68 68 69 69 70 70 70 69 69 69 68 68 68 68 69 69 70 70 71 72 73 73 74 73 74 73 73 73 73 73 74 75 76 77 78 78 79 79 78 78 77 76 75 74 72
38 38 39 40 41 43 45 46 48 50 52 54 56 57 58 60 61 62 64 65 66 67 67 68 68 69 69 68 68 67 67 66 66 66 66 66 67 67 68 68 69 69 69 69 69 69 69 69 69 70 70 70 70 71 71 72 72 72 73 73 73 73 73 72 71 70 69 67 67 67 67 68 69 70 72 73 74 75 76 77 77 77 77 76 74 73
38 39 40 41 43 45 47 49 51 53 55 56 57 58 60 61 62 63 64 65 66 67 67 68 68 67 67 66 65 65 65 65 66 67 68 68 69 69 69 69 69 69 69 69 70 70 71 71 72 72 72 73 73 73 73 73 73 73 72 71 70 68 66 65 63 61 59 58 58 58 58 59 60 61 63 66 68 71 72 73 74 75 76 75 74 74
39 40 42 44 46 48 50 52 53 55 55 57 58 59 61 62 63 63 64 65 65 66 66 65 65 65 64 64 65 65 66 67 68 68 69 69 69 69 69 70 70 71 71 72 73 73 74 74 75 75 75 75 75 75 74 73 71 69 66 63 61 58 56 55 53 52 51 50 49 50 50 51 51 52 54 56 60 63 65 68 70 72 74 74 74 73
41 42 44 46 48 50 52 53 54 55 56 57 59 60 61 62 62 63 64 64 64 64 63 63 62 63 63 64 66 67 68 68 69 69 69 70 70 71 72 73 74 75 76 76 76 77 77 77 76 76 75 75 74 72 69 66 62 58 55 52 50 48 47 46 46 45 44 44 43 43 43 44 44 45 46 48 51 53 56 59 63 67 70 72 72 73
Wind_Direction
299 301 303 304 305 309 310 309 307 306 305 304 305 307 309 309 307 306 308 308 307 306 303 301 298 296 295 295 297 295 290 285 280 274 271 268 266 266 265 263 259 255 250 245 243 242 241 240 239 237 235 235 233 228 226 225 228 236 242 241 236 241 244 246 251 246 240 236 238 301 283 271 262 249 234 226 231 233 227 226 235 241 245 247 251 254
299 301 302 303 307 310 309 307 306 306 306 306 307 308 308 308 308 309 310 309 308 306 304 302 299 296 295 295 297 295 290 287 282 276 272 268 266 264 263 263 262 259 254 250 247 245 243 241 239 237 234 233 232 230 228 225 224 231 238 239 237 241 242 244 252 251 242 229 201 202 231 238 242 235 223 223 232 238 239 236 238 243 242 244 250 248
298 299 301 305 309 309 306 304 305 306 308 308 308 309 311 311 311 311 310 308 307 306 305 304 300 296 295 296 297 295 290 286 282 279 275 271 267 264 262 261 262 262 259 255 251 248 246 244 242 240 237 234 232 230 229 225 222 226 234 237 238 240 241 247 254 252 244 233 212 200 205 214 231 237 229 228 234 242 248 245 248 253 251 252 255 253
297 299 303 307 307 304 303 303 306 308 309 308 309 312 313 313 312 310 308 307 307 307 306 303 298 295 295 296 297 295 291 285 281 280 278 274 270 266 263 260 259 260 261 259 255 251 249 247 245 243 242 240 236 233 229 225 220 221 228 234 237 236 235 238 246 245 241 240 231 216 209 210 227 241 235 233 239 242 242 242 245 251 254 257 261 264
297 301 304 304 303 302 303 305 307 308 308 309 312 313 313 312 311 309 309 307 306 305 302 300 296 293 292 294 294 292 289 284 281 279 278 276 272 268 264 261 258 257 257 257 256 253 250 249 248 246 244 243 241 236 231 226 222 221 225 229 232 232 230 229 236 241 236 238 240 230 220 214 223 237 237 238 246 245 242 238 233 234 248 256 257 260
299 301 301 300 301 302 303 304 305 307 308 311 313 312 312 312 311 309 307 304 302 300 299 299 296 293 292 292 290 288 287 284 281 279 277 275 272 268 264 260 256 254 252 251 250 249 247 247 247 246 246 244 243 239 235 230 226 225 225 226 227 229 229 227 232 238 235 232 233 227 220 217 222 231 234 238 245 248 250 244 230 227 235 244 245 246
299 299 298 299 302 302 302 303 305 307 310 312 312 311 312 312 310 306 302 300 299 299 300 300 296 293 292 291 288 285 284 283 281 278 275 272 269 268 264 259 255 252 250 248 245 244 242 241 241 242 243 244 243 241 238 235 232 230 229 227 227 228 229 228 232 237 236 234 232 228 227 225 222 225 229 235 241 245 252 247 232 226 227 233 239 244
297 296 297 300 301 301 302 303 305 308 311 313 312 311 311 311 308 305 302 300 300 299 301 300 295 292 290 289 286 283 280 280 279 276 272 269 268 266 264 261 256 251 249 247 244 241 239 238 237 237 238 240 241 240 239 239 238 236 233 231 230 231 232 231 235 240 237 236 236 235 236 235 230 227 226 230 236 239 244 242 232 227 228 230 233 235
296 295 296 298 300 301 303 304 306 309 312 311 310 310 311 311 309 305 302 301 299 297 297 296 292 289 287 287 286 283 279 276 276 275 272 270 268 266 264 262 258 253 249 248 245 241 238 237 236 234 234 237 238 239 239 239 240 239 238 236 235 235 237 237 240 244 240 235 236 235 235 236 234 230 225 226 232 235 237 238 235 229 226 227 227 228
294 294 295 297 299 302 304 306 308 309 308 308 308 307 308 307 304 302 301 299 296 292 290 288 286 283 283 285 286 285 281 276 274 274 274 273 273 273 269 265 261 257 255 253 249 245 240 237 237 236 234 235 236 237 238 237 238 240 240 240 239 239 240 241 243 246 241 234 233 234 235 237 237 235 233 231 231 231 232 234 235 231 225 225 226 228
292 293 294 297 301 304 305 306 307 306 306 308 307 304 302 300 299 300 300 295 291 289 287 285 281 279 279 282 284 286 284 279 274 274 276 276 276 277 276 273 267 261 258 258 258 254 248 242 239 238 237 235 235 236 237 237 237 238 240 241 241 242 241 243 244 244 240 234 231 234 235 238 241 241 239 235 230 228 228 228 231 230 225 223 224 224
292 293 295 298 303 304 304 304 303 303 305 307 306 304 300 298 299 301 299 294 290 288 286 283 280 278 277 278 281 285 287 285 280 276 278 279 278 277 277 275 271 263 256 255 259 260 257 252 246 242 240 238 236 236 237 237 237 238 239 239 239 241 243 244 245 243 241 235 232 234 236 237 240 241 240 239 235 233 229 227 229 230 228 227 226 227
291 293 296 300 303 303 302 301 300 299 300 302 303 301 298 300 305 307 303 299 296 293 290 285 281 279 277 277 280 284 288 290 290 288 286 286 284 282 279 275 271 265 255 248 250 255 257 256 253 249 245 242 240 239 238 238 237 237 239 240 239 239 241 243 244 244 243 239 236 238 239 237 237 238 240 241 240 237 235 231 230 230 232 232 230 230
291 294 297 301 303 302 301 300 297 297 299 301 301 298 298 305 311 313 310 306 305 303 298 291 287 286 284 284 285 288 291 293 297 299 296 293 289 285 282 277 271 264 255 245 241 245 249 250 251 250 249 247 245 242 240 240 240 238 239 240 239 239 239 240 241 244 244 241 241 242 240 239 237 237 239 240 239 238 237 234 232 231 231 231 230 231
292 295 299 301 302 301 301 298 296 300 305 306 299 296 302 306 307 312 315 314 316 314 307 302 300 299 297 294 295 296 297 296 297 299 298 297 294 291 289 285 277 267 257 248 241 239 243 245 245 245 246 248 249 247 243 240 242 241 239 239 239 239 238 238 239 240 240 241 242 241 239 237 235 233 235 238 239 240 240 237 235 233 232 233 233 234
293 297 301 304 304 302 299 296 298 308 315 307 295 294 298 298 301 315 320 319 323 322 320 319 317 317 312 306 306 305 303 300 298 299 301 303 303 302 301 297 290 281 268 256 246 241 240 242 243 243 243 244 247 249 247 242 241 242 241 238 238 240 238 238 238 235 235 239 239 237 236 234 232 232 235 240 241 242 244 245 243 241 240 240 240 240
295 299 304 306 305 300 295 293 300 314 321 300 291 290 287 291 306 319 319 322 330 330 330 330 331 338 338 327 320 314 309 306 304 304 307 311 312 313 315 314 308 300 291 277 262 250 244 244 244 244 245 244 244 246 249 247 243 243 244 241 239 240 239 239 237 232 234 239 237 232 233 233 234 235 237 240 242 242 245 248 249 248 246 247 247 247
297 303 306 305 300 292 288 291 301 312 306 282 278 277 281 297 310 314 317 326 336 336 332 332 337 344 347 340 331 325 324 322 319 318 318 319 320 322 325 325 322 315 309 301 290 275 261 252 249 247 248 248 247 246 247 248 247 245 245 245 243 241 240 239 237 234 236 241 237 230 230 233 235 236 236 237 240 242 245 247 249 248 247 249 251 252
300 304 304 298 291 285 285 293 303 305 280 259 249 260 282 297 304 311 318 325 332 333 330 332 336 340 342 343 341 342 344 341 333 325 318 316 318 323 325 324 321 316 311 306 302 297 289 277 264 255 252 251 251 250 249 250 251 248 247 246 245 244 243 241 241 239 239 244 241 232 229 233 236 237 237 236 236 239 245 247 247 245 244 247 249 250
301 303 301 293 287 285 286 294 304 289 246 237 232 241 257 275 291 303 309 312 319 325 330 332 335 338 341 345 347 349 347 342 331 316 308 309 314 318 320 317 313 308 302 300 299 298 296 292 285 276 266 259 255 253 253 253 254 252 250 248 247 246 244 244 245 245 245 248 248 241 235 235 238 239 240 239 237 238 246 247 240 233 237 244 245 244
300 300 295 288 284 282 283 290 291 249 227 227 227 226 219 241 265 275 284 293 303 315 325 329 333 339 342 344 346 345 338 327 315 306 303 306 311 314 313 310 307 302 297 294 293 293 293 290 288 285 281 275 267 260 256 255 255 254 252 251 251 249 247 246 248 250 251 254 254 252 246 242 241 241 241 241 239 240 245 244 235 229 234 240 242 244
299 296 289 282 277 275 277 282 271 231 220 222 226 226 214 221 241 256 271 285 297 310 322 328 331 337 341 341 338 330 320 310 305 305 306 308 311 312 311 309 307 304 301 298 295 293 291 288 286 283 280 279 276 271 265 260 258 256 254 253 253 254 253 250 250 251 255 257 258 256 254 251 249 248 247 245 242 240 240 236 233 233 235 236 238 243
294 288 278 269 268 268 270 268 246 220 218 223 228 233 228 230 243 253 265 279 293 305 316 322 323 327 331 331 325 313 306 303 303 305 306 307 308 307 307 307 305 304 302 300 299 296 294 290 287 283 279 277 276 275 274 271 267 264 260 257 255 256 258 257 255 253 255 258 260 260 258 256 255 254 254 252 246 241 236 231 229 231 232 232 234 236
288 280 265 257 259 264 262 249 234 223 226 234 236 238 239 241 248 255 264 277 289 297 304 310 314 316 317 316 312 305 302 303 304 304 304 304 303 302 303 303 302 300 298 297 296 296 294 292 289 285 282 278 276 275 275 275 274 271 268 264 260 259 260 261 260 258 256 257 260 261 260 259 259 257 257 255 250 243 238 234 230 229 230 232 236 236
282 275 265 257 255 255 248 241 242 241 241 245 247 249 252 255 260 267 274 280 286 291 297 307 314 315 314 312 308 303 304 306 307 306 303 301 299 299 299 299 297 294 293 292 292 291 289 288 287 285 283 281 279 277 276 275 273 271 270 268 266 263 261 262 263 262 259 258 258 261 261 260 260 259 258 257 254 249 243 239 236 235 236 238 242 244
271 267 260 255 248 239 232 234 242 246 239 239 242 247 254 260 266 272 275 279 285 291 298 306 312 313 314 312 307 303 303 306 307 306 304 302 300 300 299 299 296 293 291 289 287 285 283 281 280 280 281 281 280 279 278 276 273 270 268 266 266 265 263 262 262 263 262 260 259 260 261 261 261 260 259 259 258 255 249 244 239 238 239 241 244 248
262 256 246 240 233 225 220 220 224 226 229 234 237 240 247 255 261 265 271 279 289 296 301 307 310 312 314 312 309 308 306 306 306 306 306 305 305 304 303 301 298 294 291 288 285 282 279 278 276 276 276 277 278 278 277 276 274 272 270 268 266 265 264 263 262 262 262 262 261 260 260 261 261 261 260 259 258 258 256 252 246 241 240 241 243 244
252 241 232 227 222 219 218 222 226 229 234 240 244 246 249 254 260 267 275 286 294 299 305 310 311 312 312 310 310 310 309 309 309 310 310 308 305 302 300 298 296 293 289 286 283 281 279 277 276 275 275 275 275 275 275 275 275 274 273 271 270 268 266 265 263 261 260 261 261 259 258 259 260 261 261 260 258 258 258 257 253 248 245 244 244 243
238 229 224 221 219 221 225 232 239 243 245 249 252 254 256 259 266 274 283 290 294 298 303 306 306 307 308 308 309 309 310 310 310 312 311 305 299 297 296 297 297 295 292 288 286 284 282 279 278 276 276 276 276 276 275 275 274 274 273 273 272 270 269 267 265 263 261 259 259 259 258 257 256 257 258 259 259 258 257 256 256 254 251 248 248 247
230 226 223 222 224 227 232 239 246 250 252 256 259 261 265 271 278 283 287 291 296 300 303 303 303 304 305 305 306 306 307 307 307 307 303 296 292 293 294 296 297 297 296 294 291 290 288 284 281 279 278 278 278 278 278 277 276 275 274 273 272 271 269 267 266 264 262 261 259 259 258 257 255 255 255 256 257 258 257 255 255 254 253 251 250 249
232 230 226 227 231 233 235 241 247 253 259 263 266 269 274 280 284 288 292 296 298 300 300 300 300 301 302 303 304 304 304 302 301 301 299 295 292 291 291 291 293 294 294 293 292 292 293 291 288 286 285 283 282 280 280 279 279 278 277 276 274 272 270 268 266 265 263 262 261 260 259 258 256 255 254 253 254 255 256 256 255 254 254 253 251 250
236 234 229 228 233 238 241 244 250 257 262 265 270 276 282 286 289 293 296 297 297 297 297 298 300 302 303 303 303 302 300 299 298 298 299 295 290 288 289 289 290 292 292 290 289 290 293 294 292 290 289 289 289 286 284 282 280 279 278 277 276 275 274 272 270 268 266 264 262 261 261 260 258 257 255 254 253 253 254 255 255 255 254 253 253 252
237 237 236 232 234 241 247 251 256 261 265 269 274 280 285 288 291 295 296 296 297 298 299 301 302 303 304 303 302 300 299 299 299 297 295 290 284 281 282 283 285 288 288 287 287 289 292 295 294 291 291 292 293 291 288 286 284 281 280 278 277 276 276 275 274 272 270 268 265 263 262 261 260 258 257 255 254 253 253 254 255 255 255 254 253 253
239 242 244 243 243 246 253 257 262 266 271 275 280 285 288 292 295 297 297 297 298 299 300 302 302 302 302 301 300 301 302 302 300 295 292 289 285 281 281 282 283 285 285 285 286 288 290 292 292 291 291 293 293 292 291 289 287 285 283 280 279 277 275 274 274 272 271 270 269 267 265 263 262 260 258 257 255 254 253 254 254 254 255 254 254 253
246 251 255 258 257 256 257 261 265 270 275 279 283 287 291 294 296 297 297 297 298 298 299 300 300 299 299 300 301 303 304 302 297 294 293 291 289 287 286 286 286 286 286 285 286 288 289 289 289 290 290 292 292 292 292 291 290 288 286 283 281 280 278 276 274 272 270 269 267 266 266 265 264 262 261 259 258 256 255 254 253 253 253 253 254 253
253 257 261 262 262 263 264 268 271 274 278 280 284 288 291 293 294 294 295 295 296 297 298 298 298 298 299 301 302 299 293 286 284 287 290 290 289 289 288 287 287 286 285 285 286 287 287 288 288 288 289 289 290 290 290 290 290 289 287 286 284 282 280 279 277 275 273 271 268 266 264 263 262 262 261 260 259 259 257 256 255 253 253 252 252 252
259 261 262 264 267 270 272 274 277 279 282 284 287 289 291 292 293 293 294 294 295 297 297 297 297 298 298 298 294 289 285 283 283 286 288 289 289 289 288 287 286 286 286 286 287 287 288 288 288 288 288 288 288 288 287 287 287 287 286 286 285 283 281 280 278 276 275 273 271 269 266 264 262 260 260 259 258 259 259 258 257 256 255 254 253 253
264 266 269 271 274 276 277 279 282 285 287 289 290 291 291 292 293 293 294 295 296 297 298 298 298 298 297 296 293 290 289 288 288 289 290 291 291 290 289 289 288 288 289 289 289 290 290 290 290 289 289 289 288 287 287 286 285 285 285 284 284 283 282 281 279 277 276 274 272 270 268 266 264 262 260 259 257 257 258 258 258 258 257 257 256 255
267 269 272 275 277 279 281 284 287 288 289 290 291 292 293 294 294 295 296 296 297 298 298 298 298 297 296 295 294 293 292 292 292 292 292 292 292 291 291 291 291 291 291 291 291 291 291 291 291 290 290 289 288 287 287 286 285 284 284 283 282 282 281 281 280 279 277 275 273 271 269 267 265 264 262 261 259 258 257 257 258 258 257 257 256 257
269 271 274 276 279 282 285 287 288 289 290 291 292 293 294 295 296 297 297 298 298 298 298 297 297 296 296 295 295 295 295 295 295 294 294 293 293 293 293 292 292 292 293 293 293 292 292 292 291 291 290 289 288 287 286 285 284 283 282 282 281 281 280 280 279 278 277 276 275 273 271 268 266 264 263 262 261 260 259 258 258 258 258 257 256 256
272 276 279 282 284 287 288 289 290 291 292 293 294 295 295 296 297 297 297 297 297 296 296 296 296 296 296 296 296 296 296 295 295 295 294 294 294 294 294 294 294 294 294 294 293 293 293 292 292 291 290 289 288 288 287 286 284 283 282 281 280 280 279 278 277 277 276 275 274 273 272 270 268 266 264 263 261 261 260 259 259 259 259 258 258 257
278 282 285 287 289 290 291 292 292 292 293 293 293 293 293 294 295 295 294 294 294 294 295 295 295 296 296 296 296 295 295 295 295 295 295 295 295 295 295 295 295 295 295 295 294 294 293 292 292 291 290 289 288 288 287 286 285 284 283 282 280 279 278 277 276 275 274 273 273 272 271 270 269 267 266 264 262 261 260 259 259 258 258 258 258 258
284 287 289 290 291 291 292 292 292 292 292 291 292 292 293 293 294 294 293 294 294 295 295 295 296 296 296 296 296 295 295 295 295 296 296 296 296 296 296 296 296 296 296 295 295 294 293 293 292 291 291 290 290 289 288 287 286 285 284 283 281 280 278 276 274 273 272 271 270 270 270 270 269 268 266 265 263 262 261 260 259 258 258 258 258 258
289 291 292 293 294 294 294 294 294 294 295 295 296 297 296 296 296 296 296 296 296 296 296 296 296 296 296 296 296 296 296 296 296 296 296 296 296 296 297 297 297 297 297 296 295 295 294 294 293 292 292 291 291 290 289 288 287 286 285 283 282 280 278 276 274 272 271 270 269 268 267 267 267 267 267 265 264 262 261 260 259 258 257 257 257 257
293 294 294 295 295 295 296 296 297 298 299 299 299 299 299 298 298 298 298 298 298 298 297 297 297 297 296 296 297 297 297 297 298 298 298 299 299 299 299 299 299 299 298 297 296 296 295 295 294 294 293 292 292 291 290 289 288 287 286 284 282 280 278 277 275 274 272 271 270 269 268 266 266 266 266 266 265 264 262 261 260 259 258 257 256 256
292 293 293 294 294 295 296 297 297 298 299 299 299 300 300 300 299 299 299 299 299 299 299 299 299 299 299 300 301 301 301 302 302 302 302 302 302 302 301 301 300 299 298 297 297 296 296 295 295 294 294 293 293 292 292 291 290 289 288 286 284 282 280 279 278 276 275 274 273 271 270 268 266 265 264 264 264 264 264 263 262 260 259 258 257 256
291 293 294 295 295 296 297 297 298 298 299 300 300 300 300 300 301 301 301 301 301 302 302 302 303 303 303 304 304 304 304 304 303 303 303 302 302 302 301 300 299 298 297 297 296 296 296 295 295 295 295 294 294 293 293 293 292 291 290 288 287 285 284 283 281 280 279 277 276 274 271 269 267 266 264 263 263 263 262 262 261 261 260 259 257 256
294 295 295 296 297 297 298 299 299 300 301 301 301 301 301 302 302 302 303 303 303 304 304 304 304 304 305 305 304 304 304 303 303 302 302 301 301 300 299 298 298 298 297 297 297 297 296 296 297 296 296 296 296 295 295 294 293 292 291 290 289 288 287 286 285 284 282 280 278 276 273 271 268 266 264 263 261 260 259 259 259 259 259 258 258 257
295 296 297 298 299 299 300 301 301 302 302 302 302 302 303 303 303 303 303 303 303 303 303 304 304 304 304 304 304 303 303 302 302 301 301 300 300 299 299 299 299 299 299 299 298 298 298 298 298 298 297 297 297 296 296 295 294 294 293 292 291 290 289 288 287 286 285 283 281 278 276 273 271 268 265 262 260 258 257 256 256 256 257 257 257 256
297 299 300 300 301 302 302 302 302 302 302 302 303 303 303 303 302 302 302 302 302 303 303 303 304 304 304 304 303 303 302 302 301 301 301 300 301 301 301 301 301 301 301 300 300 299 299 299 298 298 298 298 297 297 296 296 296 295 294 293 293 292 291 290 289 288 287 285 283 281 278 276 273 270 267 264 261 258 256 255 254 254 254 254 254 254
299 300 301 301 301 302 302 302 302 302 302 302 302 302 302 302 302 302 302 303 303 304 304 304 305 305 304 304 303 302 302 302 302 302 303 303 303 303 303 303 303 302 301 301 300 300 299 298 298 298 297 297 297 297 297 297 296 296 295 295 294 294 293 293 292 291 290 289 287 285 282 279 276 273 270 266 263 260 257 255 253 252 252 252 252 253
Height
10956 10954 10953 10951 10950 10950 10950 10949 10949 10948 10948 10946 10945 10945 10944 10943 10942 10940 10938 10937 10935 10932 10929 10925 10923 10923 10923 10925 10930 10930 10928 10927 10927 10927 10927 10927 10927 10927 10927 10927 10928 10930 10932 10934 10936 10937 10938 10938 10939 10941 10943 10945 10947 10950 10951 10952 10954 10955 10956 10959 10961 10963 10964 10964 10964 10964 10964 10965 10966 10969 10971 10971 10972 10973 10970 10967 10965 10962 10961 10963 10964 10965 10967 10969 10971 10973
10954 10952 10951 10949 10949 10948 10947 10946 10946 10945 10945 10944 10943 10943 10942 10940 10939 10937 10935 10933 10932 10930 10927 10924 10920 10920 10921 10922 10926 10926 10925 10924 10923 10923 10923 10924 10924 10924 10924 10924 10924 10926 10928 10931 10933 10934 10935 10936 10937 10939 10941 10943 10945 10947 10948 10949 10950 10951 10953 10956 10958 10960 10960 10960 10960 10960 10960 10961 10961 10963 10964 10964 10964 10966 10965 10964 10963 10961 10961 10963 10964 10964 10966 10968 10970 10971
10952 10951 10949 10948 10948 10946 10944 10942 10942 10943 10943 10942 10941 10940 10939 10937 10936 10934 10932 10930 10929 10927 10925 10922 10917 10916 10918 10919 10921 10922 10921 10920 10919 10919 10920 10920 10921 10921 10921 10922 10922 10923 10924 10927 10929 10930 10931 10933 10934 10936 10938 10940 10942 10944 10945 10946 10947 10947 10949 10951 10954 10955 10956 10957 10958 10958 10958 10957 10956 10954 10954 10955 10957 10961 10962 10963 10963 10962 10962 10963 10964 10965 10967 10969 10971 10972
10950 10949 10948 10947 10946 10944 10942 10940 10939 10940 10940 10939 10939 10938 10937 10935 10933 10931 10929 10927 10926 10924 10922 10920 10915 10912 10915 10916 10917 10917 10917 10916 10916 10915 10916 10917 10917 10918 10918 10919 10920 10920 10921 10923 10925 10926 10928 10929 10931 10933 10934 10936 10938 10941 10942 10942 10942 10942 10944 10947 10949 10951 10952 10953 10954 10955 10955 10955 10955 10954 10953 10954 10956 10959 10961 10963 10964 10963 10963 10963 10963 10965 10967 10969 10970 10971
10949 10948 10946 10945 10944 10941 10940 10938 10938 10937 10936 10936 10937 10936 10934 10932 10930 10928 10926 10924 10923 10921 10920 10917 10912 10909 10912 10914 10914 10914 10913 10912 10912 10912 10912 10912 10913 10914 10915 10916 10918 10918 10919 10920 10921 10923 10925 10926 10928 10929 10931 10932 10934 10936 10937 10938 10938 10938 10940 10943 10945 10947 10948 10950 10951 10951 10952 10952 10954 10955 10955 10954 10955 10957 10958 10960 10962 10962 10962 10962 10962 10963 10964 10966 10967 10968
10947 10946 10944 10943 10941 10939 10938 10937 10936 10935 10934 10933 10933 10932 10931 10929 10927 10925 10923 10922 10920 10918 10917 10914 10909 10906 10908 10910 10911 10911 10910 10908 10908 10909 10909 10909 10909 10910 10912 10914 10915 10916 10917 10917 10918 10920 10922 10923 10925 10926 10927 10928 10929 10931 10932 10933 10934 10935 10937 10939 10942 10944 10945 10947 10948 10949 10949 10949 10950 10951 10952 10952 10952 10953 10955 10956 10957 10959 10960 10960 10960 10960 10961 10963 10964 10965
10946 10943 10942 10940 10939 10937 10935 10935 10934 10933 10932 10931 10930 10928 10928 10927 10924 10922 10920 10919 10917 10915 10914 10912 10907 10904 10905 10906 10907 10908 10908 10906 10905 10905 10906 10906 10906 10907 10908 10911 10913 10914 10914 10914 10916 10918 10919 10921 10923 10923 10924 10925 10925 10926 10927 10929 10930 10932 10934 10936 10938 10940 10941 10944 10945 10947 10947 10947 10948 10949 10950 10951 10950 10950 10951 10953 10953 10955 10956 10957 10958 10958 10958 10959 10960 10961
10943 10941 10939 10938 10936 10934 10933 10932 10931 10931 10931 10929 10926 10924 10924 10924 10921 10918 10916 10915 10914 10912 10911 10909 10906 10903 10902 10903 10904 10906 10907 10905 10902 10902 10903 10903 10904 10904 10905 10908 10910 10912 10911 10911 10913 10915 10917 10919 10920 10921 10921 10921 10922 10923 10924 10925 10927 10928 10930 10932 10935 10936 10938 10941 10943 10945 10946 10947 10949 10950 10950 10950 10949 10948 10949 10949 10949 10950 10951 10953 10954 10954 10955 10955 10956 10957
10940 10938 10937 10936 10934 10932 10930 10929 10929 10929 10928 10927 10924 10922 10921 10920 10918 10915 10913 10912 10911 10910 10909 10907 10905 10902 10900 10900 10901 10903 10905 10903 10901 10900 10900 10901 10902 10902 10903 10905 10907 10909 10909 10909 10910 10912 10914 10916 10917 10917 10918 10918 10918 10919 10921 10922 10923 10925 10926 10928 10931 10934 10936 10938 10940 10941 10943 10944 10946 10947 10948 10948 10947 10945 10944 10944 10945 10945 10946 10947 10949 10949 10950 10950 10951 10952
10937 10935 10934 10934 10933 10931 10929 10927 10926 10925 10925 10924 10922 10920 10919 10918 10916 10913 10911 10910 10908 10907 10907 10906 10904 10901 10899 10897 10898 10900 10901 10901 10900 10898 10898 10899 10900 10900 10900 10902 10904 10906 10906 10906 10907 10909 10911 10913 10914 10914 10914 10915 10915 10916 10917 10919 10920 10922 10923 10925 10928 10931 10933 10934 10935 10936 10937 10938 10939 10941 10943 10944 10943 10941 10940 10940 10941 10941 10942 10943 10944 10945 10945 10945 10946 10947
10934 10933 10932 10931 10931 10930 10928 10926 10923 10921 10920 10920 10919 10918 10917 10916 10914 10912 10910 10908 10906 10904 10904 10903 10901 10900 10898 10896 10896 10897 10898 10898 10898 10896 10896 10897 10897 10898 10898 10899 10901 10903 10904 10904 10904 10906 10908 10909 10910 10911 10911 10911 10912 10913 10914 10916 10918 10919 10920 10922 10925 10927 10928 10929 10929 10930 10931 10932 10934 10935 10937 10939 10939 10938 10937 10937 10938 10938 10939 10939 10940 10941 10941 10941 10942 10942
10932 10931 10930 10929 10929 10927 10925 10924 10922 10919 10917 10916 10915 10913 10913 10913 10912 10911 10908 10906 10905 10903 10902 10901 10899 10898 10897 10896 10895 10895 10895 10894 10894 10894 10894 10895 10896 10896 10897 10897 10898 10901 10902 10902 10902 10903 10905 10906 10907 10908 10908 10907 10908 10909 10911 10913 10915 10917 10917 10919 10921 10922 10923 10923 10924 10925 10926 10929 10931 10932 10933 10935 10935 10936 10936 10935 10935 10935 10935 10936 10937 10937 10938 10938 10939 10938
10929 10928 10928 10927 10927 10924 10922 10921 10918 10917 10916 10915 10913 10911 10910 10910 10909 10909 10907 10905 10904 10902 10901 10899 10897 10896 10896 10895 10894 10894 10893 10891 10891 10892 10893 10893 10894 10895 10895 10895 10896 10899 10901 10901 10901 10901 10902 10904 10905 10905 10904 10904 10904 10906 10908 10910 10913 10914 10915 10916 10917 10918 10918 10919 10920 10921 10922 10925 10928 10929 10930 10930 10930 10931 10932 10932 10932 10931 10932 10932 10933 10934 10935 10936 10936 10936
10927 10926 10925 10925 10924 10921 10919 10917 10915 10914 10914 10914 10912 10910 10908 10907 10907 10906 10905 10903 10902 10901 10899 10898 10897 10895 10895 10894 10893 10892 10891 10890 10890 10890 10891 10892 10892 10893 10893 10894 10895 10896 10899 10900 10900 10900 10901 10901 10902 10902 10902 10901 10902 10903 10906 10908 10910 10911 10912 10912 10913 10914 10914 10915 10917 10918 10920 10921 10923 10924 10925 10925 10925 10927 10928 10928 10927 10927 10927 10929 10930 10930 10930 10930 10931 10932
10924 10924 10923 10922 10921 10918 10916 10913 10911 10911 10912 10911 10910 10909 10907 10906 10905 10904 10902 10900 10899 10899 10898 10897 10896 10895 10894 10893 10892 10891 10890 10889 10888 10888 10889 10889 10891 10891 10892 10893 10893 10894 10896 10897 10898 10899 10899 10899 10899 10899 10899 10899 10899 10901 10904 10906 10907 10908 10909 10909 10909 10910 10910 10912 10914 10916 10917 10917 10918 10919 10920 10921 10922 10922 10923 10924 10924 10923 10923 10924 10925 10925 10925 10925 10926 10927
10921 10921 10921 10920 10918 10915 10912 10910 10909 10909 10910 10909 10908 10907 10907 10905 10904 10902 10901 10899 10898 10897 10897 10896 10895 10894 10893 10892 10891 10890 10889 10888 10887 10887 10887 10888 10889 10890 10891 10891 10892 10892 10893 10895 10896 10897 10897 10896 10896 10896 10896 10896 10897 10899 10901 10903 10904 10905 10905 10905 10906 10906 10907 10909 10911 10913 10913 10913 10914 10915 10916 10918 10918 10918 10918 10919 10919 10920 10920 10920 10920 10920 10922 10922 10922 10923
10919 10919 10919 10918 10916 10912 10909 10908 10908 10908 10909 10907 10907 10906 10905 10904 10902 10901 10900 10898 10897 10896 10895 10894 10893 10892 10891 10890 10890 10889 10888 10888 10887 10887 10887 10887 10888 10888 10889 10890 10890 10890 10891 10892 10893 10894 10894 10894 10893 10893 10893 10893 10894 10896 10898 10899 10900 10901 10901 10902 10902 10903 10904 10905 10907 10908 10909 10909 10909 10910 10912 10913 10914 10913 10914 10914 10915 10915 10915 10915 10915 10916 10917 10918 10919 10919
10917 10917 10916 10915 10913 10910 10907 10906 10907 10908 10908 10907 10906 10905 10904 10903 10901 10900 10899 10898 10897 10895 10895 10894 10893 10891 10891 10890 10889 10889 10888 10888 10887 10887 10886 10886 10887 10887 10888 10888 10889 10888 10888 10889 10890 10891 10891 10891 10891 10891 10890 10891 10891 10893 10894 10895 10896 10897 10898 10899 10899 10899 10900 10902 10903 10903 10904 10905 10905 10906 10907 10908 10909 10910 10910 10910 10910 10911 10911 10910 10910 10911 10912 10913 10913 10914
10914 10914 10913 10912 10910 10907 10905 10905 10906 10907 10907 10906 10905 10904 10903 10901 10900 10900 10899 10898 10896 10896 10895 10894 10893 10891 10891 10890 10890 10889 10888 10888 10887 10886 10886 10886 10886 10886 10887 10887 10888 10888 10887 10887 10887 10888 10888 10888 10888 10888 10888 10888 10889 10890 10891 10891 10892 10893 10894 10895 10895 10896 10897 10898 10899 10899 10899 10900 10901 10902 10902 10904 10905 10906 10907 10907 10907 10907 10907 10907 10906 10907 10908 10908 10909 10908
10913 10911 10910 10909 10907 10905 10904 10904 10905 10905 10905 10904 10903 10903 10902 10901 10900 10899 10898 10897 10896 10896 10895 10894 10893 10892 10891 10891 10890 10889 10888 10888 10887 10886 10886 10885 10885 10886 10886 10887 10887 10887 10887 10886 10886 10886 10886 10886 10885 10885 10884 10885 10886 10887 10888 10888 10888 10889 10890 10891 10892 10892 10893 10894 10895 10895 10895 10895 10895 10896 10898 10899 10901 10902 10903 10904 10904 10904 10904 10904 10903 10904 10904 10904 10904 10903
10911 10909 10908 10907 10905 10904 10903 10903 10903 10904 10903 10902 10902 10901 10901 10900 10899 10898 10897 10896 10895 10895 10894 10894 10892 10892 10891 10891 10890 10889 10888 10887 10886 10886 10885 10885 10885 10886 10886 10886 10886 10886 10886 10885 10885 10884 10884 10883 10883 10882 10881 10881 10882 10883 10884 10884 10884 10885 10886 10887 10888 10888 10888 10890 10891 10892 10891 10890 10890 10891 10892 10894 10896 10897 10898 10899 10900 10901 10901 10900 10900 10900 10900 10899 10899 10899
10907 10907 10906 10905 10904 10902 10902 10902 10902 10902 10902 10901 10901 10900 10900 10900 10899 10898 10897 10896 10895 10894 10894 10894 10893 10892 10892 10891 10891 10890 10888 10887 10886 10885 10885 10885 10885 10885 10885 10885 10884 10884 10884 10884 10883 10883 10883 10882 10881 10879 10878 10878 10878 10878 10879 10879 10879 10880 10882 10883 10884 10883 10883 10884 10886 10887 10887 10886 10885 10886 10887 10888 10890 10892 10893 10894 10895 10896 10896 10896 10895 10895 10895 10895 10894 10894
10904 10904 10904 10903 10902 10901 10902 10902 10901 10901 10900 10900 10900 10900 10899 10899 10899 10898 10897 10896 10895 10894 10894 10894 10893 10892 10892 10891 10891 10889 10888 10887 10886 10885 10884 10884 10884 10884 10883 10883 10883 10882 10882 10881 10882 10882 10881 10880 10879 10877 10875 10874 10874 10874 10875 10876 10876 10876 10877 10878 10879 10879 10878 10878 10879 10881 10882 10881 10881 10881 10881 10882 10884 10886 10887 10888 10889 10890 10891 10891 10891 10890 10890 10890 10890 10890
10900 10901 10901 10901 10901 10901 10901 10901 10900 10900 10900 10900 10899 10899 10899 10898 10898 10897 10897 10896 10895 10895 10894 10893 10893 10892 10892 10891 10890 10889 10888 10886 10886 10885 10884 10884 10883 10882 10882 10881 10881 10880 10880 10879 10879 10880 10879 10878 10877 10875 10873 10871 10870 10870 10871 10872 10872 10872 10872 10872 10873 10874 10873 10872 10872 10873 10875 10876 10876 10876 10876 10877 10878 10880 10881 10882 10883 10884 10885 10885 10885 10885 10884 10884 10884 10885
10898 10898 10898 10898 10899 10900 10900 10900 10900 10900 10900 10900 10899 10899 10898 10897 10896 10896 10896 10895 10895 10894 10893 10893 10892 10892 10891 10890 10890 10888 10887 10886 10885 10885 10884 10883 10882 10881 10881 10880 10879 10878 10877 10877 10877 10877 10876 10875 10874 10872 10870 10868 10867 10867 10867 10868 10868 10868 10867 10867 10867 10867 10867 10867 10866 10866 10868 10869 10870 10871 10871 10871 10871 10872 10874 10875 10876 10878 10879 10879 10879 10878 10877 10877 10877 10878
10896 10897 10897 10897 10897 10898 10898 10899 10899 10899 10899 10899 10899 10898 10897 10896 10895 10894 10894 10894 10893 10893 10892 10892 10892 10891 10891 10890 10889 10888 10887 10886 10885 10884 10882 10881 10880 10879 10879 10878 10876 10875 10874 10874 10873 10873 10872 10871 10870 10869 10867 10865 10864 10863 10863 10863 10863 10862 10862 10861 10861 10860 10860 10860 10860 10860 10861 10862 10863 10864 10864 10864 10864 10865 10866 10867 10868 10869 10871 10873 10873 10872 10871 10871 10870 10871
10894 10895 10896 10896 10896 10896 10897 10897 10897 10897 10897 10896 10896 10896 10895 10894 10894 10893 10892 10892 10892 10892 10891 10891 10891 10890 10890 10889 10888 10887 10886 10885 10884 10882 10880 10879 10877 10876 10875 10874 10872 10870 10870 10869 10868 10868 10867 10866 10866 10865 10863 10861 10860 10858 10857 10857 10857 10856 10856 10856 10855 10854 10854 10854 10854 10854 10855 10855 10856 10856 10857 10857 10857 10858 10858 10859 10859 10860 10861 10864 10866 10866 10865 10864 10864 10865
10893 10894 10895 10895 10896 10896 10896 10896 10895 10895 10895 10894 10894 10894 10894 10893 10892 10891 10891 10891 10891 10890 10890 10889 10889 10888 10887 10886 10885 10884 10883 10882 10881 10879 10877 10875 10872 10870 10869 10868 10866 10864 10863 10864 10863 10862 10861 10861 10860 10860 10859 10857 10855 10853 10852 10851 10850 10850 10850 10849 10849 10848 10847 10847 10847 10847 10847 10847 10847 10847 10849 10850 10850 10850 10850 10850 10851 10852 10852 10854 10856 10858 10858 10857 10857 10858
10892 10893 10894 10894 10895 10895 10895 10894 10894 10894 10893 10892 10892 10892 10891 10891 10890 10890 10890 10889 10889 10889 10888 10888 10887 10886 10885 10883 10882 10881 10879 10878 10876 10875 10873 10869 10865 10863 10862 10860 10859 10857 10856 10857 10857 10856 10855 10855 10854 10854 10854 10852 10850 10848 10847 10845 10844 10843 10843 10842 10841 10841 10840 10839 10839 10839 10839 10839 10838 10838 10839 10840 10842 10842 10842 10841 10842 10843 10844 10845 10846 10848 10850 10850 10849 10849
10890 10892 10893 10893 10894 10893 10893 10892 10892 10891 10890 10890 10890 10889 10889 10889 10889 10889 10888 10888 10887 10887 10886 10885 10884 10883 10882 10881 10879 10878 10876 10874 10873 10871 10867 10862 10858 10855 10855 10854 10852 10851 10849 10849 10849 10849 10848 10848 10848 10847 10847 10846 10845 10843 10841 10840 10838 10837 10835 10834 10833 10831 10830 10830 10830 10830 10831 10830 10830 10829 10829 10830 10831 10833 10834 10834 10833 10833 10834 10835 10837 10838 10840 10841 10841 10840
10889 10891 10892 10892 10892 10892 10891 10891 10890 10889 10888 10888 10887 10886 10887 10887 10887 10886 10886 10886 10885 10885 10884 10883 10882 10881 10880 10878 10876 10874 10873 10871 10868 10866 10861 10857 10854 10852 10850 10849 10848 10846 10844 10843 10842 10841 10840 10840 10839 10839 10838 10837 10837 10836 10834 10833 10831 10829 10827 10825 10823 10821 10820 10819 10820 10820 10821 10822 10821 10821 10820 10820 10821 10822 10824 10826 10826 10825 10824 10825 10827 10829 10830 10832 10833 10832
10888 10889 10890 10891 10890 10890 10890 10889 10888 10887 10886 10885 10884 10884 10884 10884 10884 10884 10884 10883 10883 10882 10881 10880 10879 10878 10877 10875 10872 10870 10868 10866 10863 10861 10858 10855 10852 10849 10846 10845 10843 10841 10839 10837 10836 10834 10832 10831 10830 10828 10827 10826 10825 10825 10824 10823 10822 10821 10819 10816 10814 10812 10810 10810 10809 10810 10811 10811 10812 10812 10811 10810 10810 10811 10813 10815 10816 10816 10816 10816 10816 10818 10820 10821 10823 10823
10886 10887 10888 10889 10889 10889 10888 10888 10887 10885 10884 10884 10882 10882 10882 10882 10881 10881 10880 10880 10879 10878 10877 10876 10875 10874 10872 10870 10867 10865 10862 10860 10858 10856 10854 10852 10849 10845 10842 10840 10838 10836 10834 10832 10830 10828 10826 10824 10821 10819 10817 10815 10813 10812 10812 10811 10811 10810 10809 10808 10806 10804 10802 10800 10799 10799 10799 10800 10800 10801 10801 10800 10800 10801 10802 10803 10804 10806 10807 10807 10807 10808 10809 10810 10811 10813
10885 10886 10886 10888 10889 10888 10887 10886 10885 10884 10883 10882 10881 10880 10880 10879 10878 10878 10876 10875 10874 10873 10872 10871 10870 10869 10867 10865 10863 10860 10857 10854 10851 10849 10848 10846 10844 10841 10838 10835 10833 10830 10828 10826 10824 10822 10821 10818 10815 10812 10808 10805 10802 10800 10799 10799 10798 10798 10797 10796 10795 10794 10793 10791 10789 10788 10787 10788 10788 10789 10789 10789 10789 10790 10790 10791 10793 10794 10796 10797 10798 10798 10799 10799 10800 10801
10884 10885 10885 10886 10887 10887 10886 10885 10884 10882 10881 10880 10879 10878 10877 10876 10875 10874 10872 10870 10869 10868 10867 10866 10865 10864 10862 10861 10859 10856 10853 10849 10845 10842 10841 10840 10837 10835 10833 10829 10826 10824 10821 10819 10817 10816 10814 10812 10809 10805 10801 10798 10795 10791 10789 10787 10786 10785 10784 10783 10783 10782 10781 10780 10778 10777 10776 10776 10777 10778 10778 10778 10778 10779 10779 10780 10780 10781 10783 10785 10787 10788 10789 10789 10789 10790
10883 10884 10884 10884 10884 10884 10883 10883 10882 10881 10880 10879 10878 10877 10875 10874 10872 10870 10867 10866 10864 10864 10863 10861 10860 10859 10858 10857 10856 10853 10849 10845 10840 10837 10836 10834 10832 10829 10826 10823 10819 10817 10815 10812 10810 10808 10806 10804 10801 10798 10795 10792 10788 10785 10781 10778 10776 10774 10772 10771 10771 10770 10769 10768 10766 10765 10764 10765 10765 10766 10767 10767 10767 10767 10768 10768 10769 10769 10770 10772 10774 10776 10778 10778 10779 10779
10882 10882 10882 10882 10881 10881 10881 10880 10880 10878 10877 10876 10875 10874 10872 10870 10868 10866 10863 10861 10859 10859 10858 10856 10854 10853 10852 10853 10851 10848 10844 10839 10835 10832 10830 10828 10825 10822 10819 10815 10812 10809 10806 10804 10801 10799 10796 10794 10792 10789 10787 10783 10780 10777 10774 10770 10767 10765 10762 10760 10759 10758 10757 10756 10755 10754 10753 10753 10753 10753 10754 10755 10755 10755 10756 10757 10757 10757 10757 10758 10760 10762 10765 10766 10767 10768
10880 10879 10879 10879 10879 10878 10878 10877 10877 10875 10874 10872 10871 10869 10868 10866 10864 10862 10859 10856 10854 10853 10852 10850 10848 10846 10845 10844 10842 10839 10836 10833 10830 10826 10822 10819 10817 10813 10809 10806 10802 10799 10797 10794 10791 10789 10786 10783 10781 10778 10776 10773 10770 10767 10764 10761 10758 10756 10753 10751 10749 10747 10746 10745 10744 10743 10742 10742 10741 10741 10742 10742 10742 10743 10743 10744 10746 10746 10746 10746 10747 10749 10751 10753 10754 10755
10878 10877 10877 10877 10876 10875 10875 10874 10874 10872 10870 10868 10866 10864 10863 10861 10859 10857 10855 10852 10849 10847 10845 10843 10841 10839 10837 10834 10832 10829 10827 10824 10822 10819 10815 10811 10808 10804 10800 10796 10793 10790 10787 10784 10782 10779 10776 10773 10770 10768 10765 10763 10760 10757 10754 10751 10749 10747 10744 10742 10739 10738 10736 10734 10733 10732 10731 10730 10729 10729 10730 10730 10730 10730 10731 10732 10733 10734 10734 10734 10735 10736 10738 10740 10741 10742
10875 10875 10875 10874 10873 10872 10871 10871 10870 10868 10866 10864 10862 10860 10858 10856 10854 10852 10849 10846 10843 10841 10838 10836 10833 10831 10828 10825 10823 10820 10817 10814 10811 10808 10805 10801 10798 10794 10791 10787 10784 10781 10777 10774 10771 10768 10765 10763 10760 10757 10755 10752 10749 10747 10744 10742 10739 10737 10735 10733 10731 10729 10727 10725 10724 10722 10720 10718 10717 10717 10717 10718 10718 10719 10719 10720 10720 10721 10722 10723 10723 10724 10725 10727 10729 10730
10873 10872 10872 10871 10870 10868 10867 10866 10865 10864 10862 10860 10858 10855 10852 10850 10848 10846 10843 10840 10838 10835 10832 10829 10826 10823 10821 10818 10814 10811 10807 10804 10801 10797 10794 10791 10787 10784 10780 10777 10774 10771 10768 10764 10761 10758 10755 10752 10750 10747 10745 10742 10739 10737 10735 10732 10730 10728 10726 10725 10722 10720 10718 10716 10713 10711 10709 10706 10705 10704 10703 10704 10705 10706 10707 10708 10709 10709 10709 10710 10712 10712 10713 10714 10716 10718
10870 10869 10868 10867 10866 10864 10862 10861 10860 10859 10857 10856 10854 10852 10849 10846 10845 10842 10839 10836 10833 10830 10826 10823 10820 10817 10813 10810 10807 10803 10799 10795 10792 10788 10785 10781 10778 10774 10771 10767 10764 10761 10757 10754 10751 10748 10745 10742 10739 10737 10735 10732 10730 10728 10725 10722 10719 10718 10716 10714 10712 10710 10707 10705 10702 10700 10697 10695 10693 10691 10690 10690 10691 10692 10693 10695 10696 10697 10697 10698 10700 10701 10701 10702 10704 10705
10866 10866 10865 10863 10862 10860 10858 10856 10855 10854 10852 10851 10849 10847 10845 10842 10840 10837 10834 10831 10828 10824 10821 10817 10814 10810 10806 10802 10799 10795 10791 10787 10783 10779 10775 10772 10768 10765 10761 10758 10754 10751 10747 10744 10740 10737 10734 10732 10729 10727 10724 10722 10720 10718 10715 10712 10709 10707 10705 10703 10700 10697 10694 10692 10690 10687 10684 10683 10681 10679 10678 10677 10676 10677 10678 10680 10682 10683 10684 10686 10688 10689 10690 10691 10692 10694
10862 10862 10860 10858 10857 10855 10853 10850 10848 10846 10845 10843 10841 10840 10837 10834 10832 10829 10826 10823 10820 10817 10813 10809 10805 10802 10798 10794 10791 10787 10783 10779 10775 10771 10767 10764 10760 10756 10753 10749 10745 10742 10738 10734 10730 10727 10724 10721 10718 10716 10713 10711 10709 10707 10704 10700 10697 10695 10693 10690 10687 10684 10680 10678 10675 10673 10671 10670 10668 10667 10666 10665 10663 10662 10663 10664 10666 10668 10670 10672 10674 10676 10678 10680 10682 10682
10858 10857 10856 10854 10852 10850 10847 10845 10842 10840 10838 10835 10833 10831 10828 10825 10823 10820 10817 10814 10811 10807 10804 10800 10797 10793 10789 10786 10782 10778 10775 10770 10766 10762 10758 10754 10750 10746 10743 10739 10736 10732 10728 10724 10720 10717 10714 10711 10707 10704 10701 10699 10696 10694 10691 10687 10685 10683 10680 10677 10673 10670 10667 10663 10661 10658 10657 10656 10655 10654 10653 10651 10649 10649 10649 10649 10651 10653 10656 10659 10661 10663 10666 10668 10671 10672
10855 10853 10852 10850 10848 10845 10843 10840 10838 10835 10832 10829 10826 10823 10820 10817 10813 10810 10807 10804 10801 10797 10794 10790 10786 10782 10778 10775 10771 10767 10763 10759 10754 10750 10746 10743 10739 10736 10733 10729 10726 10722 10718 10714 10710 10706 10703 10700 10696 10693 10690 10687 10684 10681 10677 10674 10672 10670 10666 10663 10659 10656 10652 10650 10647 10645 10643 10642 10640 10640 10639 10637 10635 10635 10635 10636 10637 10639 10642 10645 10648 10650 10652 10655 10658 10660
10851 10850 10848 10846 10843 10841 10838 10836 10833 10830 10827 10824 10820 10816 10813 10809 10805 10801 10797 10793 10789 10786 10782 10778 10774 10770 10766 10763 10759 10755 10751 10747 10743 10740 10736 10733 10730 10727 10724 10720 10716 10713 10709 10705 10701 10697 10693 10689 10685 10682 10679 10675 10672 10668 10665 10661 10658 10655 10652 10648 10645 10641 10638 10635 10633 10631 10629 10627 10626 10624 10623 10621 10620 10620 10621 10623 10625 10627 10629 10631 10633 10635 10637 10641 10645 10648
10846 10845 10843 10841 10838 10836 10833 10830 10827 10824 10821 10817 10813 10810 10805 10802 10798 10793 10789 10784 10780 10776 10772 10768 10765 10761 10757 10753 10750 10746 10742 10738 10735 10731 10728 10725 10722 10718 10715 10711 10707 10703 10699 10695 10691 10687 10682 10678 10675 10671 10667 10663 10660 10656 10652 10648 10644 10641 10638 10634 10630 10627 10623 10620 10618 10616 10614 10612 10611 10609 10607 10606 10606 10606 10607 10609 10611 10612 10614 10617 10619 10621 10623 10627 10632 10636
10841 10840 10838 10835 10833 10830 10827 10824 10821 10818 10814 10810 10806 10802 10798 10794 10790 10786 10781 10777 10773 10769 10766 10762 10758 10754 10751 10747 10743 10739 10735 10731 10727 10723 10720 10716 10712 10709 10705 10701 10697 10693 10688 10684 10680 10675 10671 10667 10663 10659 10655 10652 10648 10644 10640 10636 10632 10628 10624 10620 10617 10613 10610 10607 10605 10603 10601 10599 10597 10595 10594 10593 10593 10593 10593 10594 10596 10598 10600 10604 10607 10609 10611 10614 10618 10622
10837 10835 10832 10829 10827 10824 10821 10818 10814 10811 10807 10804 10800 10796 10792 10788 10783 10779 10775 10772 10768 10764 10760 10756 10752 10748 10744 10740 10735 10731 10727 10722 10718 10715 10711 10707 10703 10699 10694 10690 10686 10682 10677 10673 10668 10664 10660 10656 10651 10647 10643 10639 10635 10631 10627 10623 10620 10616 10612 10608 10605 10602 10599 10596 10594 10592 10590 10588 10587 10585 10583 10582 10582 10581 10582 10582 10583 10585 10588 10592 10595 10597 10599 10602 10605 10609
10832 10830 10827 10824 10821 10818 10815 10812 10808 10805 10802 10798 10794 10790 10786 10781 10777 10773 10769 10765 10761 10757 10753 10749 10745 10741 10737 10732 10727 10723 10718 10713 10709 10705 10701 10696 10692 10687 10683 10678 10674 10669 10665 10660 10656 10652 10648 10644 10640 10636 10632 10627 10623 10619 10616 10612 10608 10605 10602 10599 10596 10593 10591 10588 10586 10584 10582 10580 10578 10576 10574 10573 10572 10572 10572 10572 10572 10574 10577 10580 10583 10584 10587 10590 10593 10596